Date String (YYYY-MM-DD hh:mm:ss) UTC,Instrument flags,Ambient pressure (hPa),Sample flow (lpm),Bypass flow (lpm),Sample temperature (°C),Ambient temperature (°C),ASC tube jacket temperature (°C),LED temperature (°C),Box temperature (°C),Sample RH (%),Span deviation,Mass concentration (μg/m³),Mass concentration (μg/m³),Mass concentration (μg/m³)
DateTimeUTC,F1_M11,P_M11,Q1_M11,Q2_M11,T1_M11,T2_M11,T3_M11,T4_M11,T5_M11,U1_M11,ZSPAN_M11,X0_M11,X2_M11,X1_M11
2022-09-19 23:00:00,,0824.7,4.99,0.00,29.7,28.3,00.0,38.3,31.7,14.7,0000.0,0013.28,0003.46,0002.91
2022-09-19 23:01:00,,0824.6,5.01,0.00,29.8,27.2,00.0,38.3,31.6,14.4,0000.0,0013.37,0003.49,0002.91
2022-09-19 23:02:00,,0824.7,5.01,0.00,29.7,26.5,00.0,38.2,31.5,14.6,0000.0,0012.70,0003.48,0002.92
2022-09-19 23:03:00,,0824.6,4.99,0.00,29.7,26.7,00.0,38.2,31.5,14.4,0000.0,0012.18,0003.51,0002.94
2022-09-19 23:04:00,,0824.6,5.00,0.00,29.6,27.0,00.0,38.2,31.3,14.5,0000.0,0011.65,0003.50,0002.96
2022-09-19 23:05:00,,0824.6,5.01,0.00,29.6,27.3,00.0,38.2,31.3,14.8,0000.0,0010.61,0003.45,0002.98
2022-09-19 23:06:00,,0824.6,4.99,0.00,29.6,27.6,00.0,38.2,31.4,14.5,0000.0,0009.37,0003.46,0002.98
2022-09-19 23:07:00,,0824.7,5.01,0.00,29.6,27.9,00.0,38.2,31.4,14.5,0000.0,0008.60,0003.45,0002.97
2022-09-19 23:08:00,,0824.7,5.00,0.00,29.6,28.1,00.0,38.2,31.5,15.1,0000.0,0008.75,0003.49,0002.98
2022-09-19 23:09:00,,0824.6,5.00,0.00,29.7,28.3,00.0,38.3,31.6,15.1,0000.0,0009.88,0003.51,0003.00
2022-09-19 23:10:00,,0824.7,4.99,0.00,29.7,28.5,00.0,38.3,31.7,15.4,0000.0,0009.65,0003.48,0003.00
2022-09-19 23:11:00,,0824.6,5.01,0.00,29.8,28.1,00.0,38.3,31.7,15.5,0000.0,0009.85,0003.49,0003.01
2022-09-19 23:12:00,,0824.7,5.00,0.00,29.7,26.8,00.0,38.3,31.6,15.5,0000.0,0010.12,0003.51,0003.04
2022-09-19 23:13:00,,0824.6,4.99,0.00,29.7,26.5,00.0,38.2,31.5,15.6,0000.0,0010.45,0003.55,0003.05
2022-09-19 23:14:00,,0824.7,5.00,0.00,29.7,26.8,00.0,38.2,31.5,16.0,0000.0,0010.46,0003.56,0003.04
2022-09-19 23:15:00,,0824.7,5.00,0.00,29.6,27.1,00.0,38.2,31.3,15.6,0000.0,0010.29,0003.55,0003.02
2022-09-19 23:16:00,,0824.6,5.00,0.00,29.6,27.4,00.0,38.2,31.4,15.4,0000.0,0010.27,0003.55,0003.03
2022-09-19 23:17:00,,0824.7,4.98,0.00,29.6,27.7,00.0,38.2,31.4,15.3,0000.0,0010.35,0003.56,0003.03
2022-09-19 23:18:00,,0824.6,5.00,0.00,29.6,28.0,00.0,38.2,31.5,15.2,0000.0,0010.78,0003.59,0003.06
2022-09-19 23:19:00,,0824.7,5.00,0.00,29.7,28.2,00.0,38.2,31.5,14.9,0000.0,0011.19,0003.60,0003.08
2022-09-19 23:20:00,,0824.6,5.00,0.00,29.7,28.4,00.0,38.3,31.6,14.8,0000.0,0009.24,0003.56,0003.09
2022-09-19 23:21:00,,0824.7,5.00,0.00,29.7,28.5,00.0,38.3,31.7,15.0,0000.0,0008.62,0003.55,0003.10
2022-09-19 23:22:00,,0824.7,5.00,0.00,29.8,28.3,00.0,38.3,31.7,15.6,0000.0,0008.56,0003.51,0003.10
2022-09-19 23:23:00,,0824.7,5.00,0.00,29.7,27.1,00.0,38.3,31.6,15.3,0000.0,0008.30,0003.50,0003.11
2022-09-19 23:24:00,,0824.7,5.00,0.00,29.7,26.4,00.0,38.3,31.5,15.4,0000.0,0008.04,0003.49,0003.10
2022-09-19 23:25:00,,0824.7,5.00,0.00,29.7,26.6,00.0,38.2,31.4,15.2,0000.0,0007.82,0003.47,0003.11
2022-09-19 23:26:00,,0824.6,4.98,0.00,29.6,26.9,00.0,38.2,31.3,15.7,0000.0,0007.99,0003.48,0003.12
2022-09-19 23:27:00,,0824.9,4.99,0.00,29.6,27.3,00.0,38.2,31.3,16.2,0000.0,0008.27,0003.51,0003.12
2022-09-19 23:28:00,,0824.8,5.01,0.00,29.6,27.6,00.0,38.2,31.3,16.1,0000.0,0008.61,0003.53,0003.13
2022-09-19 23:29:00,,0824.7,5.00,0.00,29.6,27.9,00.0,38.2,31.4,16.3,0000.0,0008.51,0003.56,0003.13
2022-09-19 23:30:00,,0824.7,5.00,0.00,29.6,28.1,00.0,38.2,31.5,16.4,0000.0,0008.30,0003.65,0003.13
2022-09-19 23:31:00,,0824.7,4.99,0.00,29.7,28.3,00.0,38.3,31.5,16.8,0000.0,0008.68,0003.70,0003.14
2022-09-19 23:32:00,,0824.7,5.00,0.00,29.7,28.5,00.0,38.3,31.6,17.1,0000.0,0008.79,0003.73,0003.14
2022-09-19 23:33:00,,0824.7,5.01,0.00,29.8,28.5,00.0,38.3,31.7,17.4,0000.0,0009.05,0003.80,0003.16
2022-09-19 23:34:00,,0824.7,4.99,0.00,29.8,27.3,00.0,38.3,31.7,17.5,0000.0,0009.56,0003.82,0003.17
2022-09-19 23:35:00,,0824.7,5.00,0.00,29.7,26.4,00.0,38.3,31.6,17.8,0000.0,0010.04,0003.82,0003.18
2022-09-19 23:36:00,,0824.7,5.01,0.00,29.7,26.6,00.0,38.2,31.5,18.2,0000.0,0010.32,0003.87,0003.18
2022-09-19 23:37:00,,0824.7,5.00,0.00,29.6,26.8,00.0,38.2,31.3,18.6,0000.0,0010.64,0003.94,0003.18
2022-09-19 23:38:00,,0824.7,5.01,0.00,29.6,27.2,00.0,38.2,31.3,18.9,0000.0,0011.46,0003.99,0003.19
2022-09-19 23:39:00,,0824.7,5.00,0.00,29.6,27.5,00.0,38.2,31.3,18.8,0000.0,0012.66,0004.01,0003.19
2022-09-19 23:40:00,,0824.8,5.01,0.00,29.6,27.8,00.0,38.2,31.4,19.4,0000.0,0013.21,0004.04,0003.20
2022-09-19 23:41:00,,0824.7,4.99,0.00,29.6,28.1,00.0,38.2,31.5,18.9,0000.0,0013.21,0004.03,0003.21
2022-09-19 23:42:00,,0824.7,4.98,0.00,29.6,28.2,00.0,38.2,31.5,18.2,0000.0,0013.81,0004.06,0003.21
2022-09-19 23:43:00,,0824.7,5.01,0.00,29.7,28.4,00.0,38.3,31.6,18.7,0000.0,0014.38,0004.07,0003.20
2022-09-19 23:44:00,,0824.7,5.00,0.00,29.7,28.6,00.0,38.3,31.7,18.8,0000.0,0014.73,0004.04,0003.19
2022-09-19 23:45:00,,0824.7,4.99,0.00,29.8,28.3,00.0,38.3,31.7,18.8,0000.0,0015.09,0004.00,0003.17
2022-09-19 23:46:00,,0824.7,5.00,0.00,29.8,26.9,00.0,38.3,31.6,18.0,0000.0,0014.97,0004.01,0003.16
2022-09-19 23:47:00,,0824.6,5.00,0.00,29.7,26.4,00.0,38.3,31.5,17.7,0000.0,0015.10,0004.01,0003.15
2022-09-19 23:48:00,,0824.7,5.01,0.00,29.7,26.6,00.0,38.2,31.4,17.3,0000.0,0014.94,0003.96,0003.13
2022-09-19 23:49:00,,0824.7,5.00,0.00,29.6,26.9,00.0,38.2,31.3,17.7,0000.0,0014.26,0003.91,0003.12
2022-09-19 23:50:00,,0824.7,4.99,0.00,29.6,27.3,00.0,38.2,31.3,17.5,0000.0,0012.68,0003.87,0003.11
2022-09-19 23:51:00,,0824.7,4.99,0.00,29.6,27.6,00.0,38.2,31.4,17.8,0000.0,0012.04,0003.81,0003.08
2022-09-19 23:52:00,,0824.7,5.01,0.00,29.6,27.8,00.0,38.2,31.4,17.6,0000.0,0012.51,0003.76,0003.04
2022-09-19 23:53:00,,0824.7,4.99,0.00,29.6,28.1,00.0,38.2,31.5,17.5,0000.0,0011.99,0003.70,0003.01
2022-09-19 23:54:00,,0824.6,5.01,0.00,29.7,28.3,00.0,38.3,31.5,17.8,0000.0,0011.21,0003.64,0002.98
2022-09-19 23:55:00,,0824.7,5.00,0.00,29.7,28.5,00.0,38.3,31.6,18.3,0000.0,0010.64,0003.58,0002.96
2022-09-19 23:56:00,,0824.7,5.00,0.00,29.7,28.6,00.0,38.3,31.7,17.9,0000.0,0010.23,0003.58,0002.96
2022-09-19 23:57:00,,0824.8,5.00,0.00,29.8,27.9,00.0,38.3,31.7,17.3,0000.0,0009.94,0003.57,0002.96
2022-09-19 23:58:00,,0824.6,5.01,0.00,29.7,26.7,00.0,38.3,31.6,17.6,0000.0,0010.37,0003.53,0002.96
2022-09-19 23:59:00,,0824.7,5.00,0.00,29.7,26.5,00.0,38.2,31.5,17.5,0000.0,0010.35,0003.50,0002.96
